FW5912 Weather Reports


time (UTC)temp
F
wind
direction
speed
knots
gust
knots
rain 1hr
in
rain 24hr
in
rain mn
in
humidity
%
barometer
mb
20260505124607 75 182 9.6 17.4 0.00 0.00 0.00 87 1010.9
20260505123057 75 144 9.6 15.6 0.00 0.00 0.00 87 1011.1
20260505121559 75 158 7.8 20.0 0.00 0.00 0.00 87 1011.0
20260505120058 75 183 9.6 15.6 0.00 0.00 0.00 87 1010.8
20260505114559 75 252 8.7 15.6 0.00 0.00 0.00 87 1010.8
20260505113123 75 204 9.6 14.8 0.00 0.00 0.00 87 1011.2
20260505111554 74 144 8.7 16.5 0.00 0.00 0.00 87 1010.6
20260505101556 75 147 8.7 15.6 0.00 0.00 0.00 86 1010.8
20260505100053 75 156 10.4 16.5 0.00 0.00 0.00 86 1010.9
20260505094552 74 217 9.6 15.6 0.00 0.00 0.00 85 1010.8
20260505093059 75 173 9.6 19.1 0.00 0.00 0.00 85 1010.8
20260505091605 74 201 8.7 16.5 0.00 0.00 0.00 85 1010.7
20260505090052 74 169 10.4 19.1 0.00 0.00 0.00 85 1010.7
20260505084555 74 160 11.3 17.4 0.00 0.00 0.00 85 1010.7
20260505083100 75 171 9.6 20.0 0.00 0.00 0.00 85 1010.9
20260505081605 75 205 10.4 19.1 0.00 0.00 0.00 85 1011.1
20260505080053 74 150 9.6 15.6 0.00 0.00 0.00 85 1011.2
20260505074553 74 132 10.4 20.0 0.00 0.00 0.00 84 1011.2
20260505073111 74 195 11.3 25.2 0.00 0.00 0.00 84 1011.4
20260505071602 74 159 9.6 19.1 0.00 0.00 0.00 84 1011.6
20260505064554 74 136 11.3 16.5 0.00 0.00 0.00 83 1012.1
20260505063053 74 153 11.3 19.1 0.00 0.00 0.00 83 1012.3
20260505061555 74 178 11.3 18.2 0.00 0.00 0.00 82 1012.2
20260505060056 74 146 10.4 18.2 0.00 0.00 0.00 83 1012.4
20260505054555 74 175 10.4 18.2 0.00 0.00 0.00 82 1012.4
20260505053057 74 142 10.4 17.4 0.00 0.00 0.00 82 1012.3
20260505051604 74 164 11.3 19.1 0.00 0.00 0.00 81 1012.6
20260505050106 74 186 10.4 16.5 0.00 0.00 0.00 81 1012.8
20260505041602 74 134 11.3 19.1 0.00 0.00 0.00 80 1013.1
20260505040056 74 142 10.4 20.0 0.00 0.00 0.00 80 1013.3
20260505034554 74 138 12.2 18.2 0.00 0.00 0.00 80 1013.2
20260505033053 74 132 12.2 18.2 0.00 0.00 0.00 79 1013.2
20260505031557 74 169 12.2 18.2 0.00 0.00 0.00 80 1013.3
20260505030055 74 159 10.4 16.5 0.00 0.00 0.00 79 1013.4
20260505024601 74 195 11.3 20.0 0.00 0.00 0.00 78 1013.3
20260505023054 74 172 12.2 17.4 0.00 0.00 0.00 78 1013.3
20260505021552 74 190 11.3 16.5 0.00 0.00 0.00 77 1013.2
20260505020055 74 143 10.4 16.5 0.00 0.00 0.00 78 1013.0
20260505014553 74 144 12.2 16.5 0.00 0.00 0.00 77 1013.0
20260505013121 74 185 8.7 16.5 0.00 0.00 0.00 77 1013.1
20260505011613 74 153 7.8 15.6 0.00 0.00 0.00 76 1013.0
20260505010110 74 147 9.6 16.5 0.00 0.00 0.00 76 1012.9
20260505004558 74 162 10.4 16.5 0.00 0.00 0.00 75 1012.7
20260505003056 74 150 10.4 14.8 0.00 0.00 0.00 75 1012.8
20260505001555 75 148 8.7 14.8 0.00 0.00 0.00 75 1013.0
20260505000106 75 213 10.4 16.5 0.00 0.00 0.00 74 1013.1
20260504234552 75 153 8.7 13.0 0.00 0.00 0.00 74 1013.2
20260504233104 76 138 8.7 13.9 0.00 0.00 0.00 73 1013.3
20260504231557 75 163 8.7 13.9 0.00 0.00 0.00 72 1013.7
20260504230100 75 132 7.8 13.0 0.00 0.00 0.00 72 1013.8
20260504224555 76 148 8.7 11.3 0.00 0.00 0.00 71 1013.8
20260504223102 76 153 8.7 12.2 0.00 0.00 0.00 70 1014.0
20260504221555 77 149 7.8 11.3 0.00 0.00 0.00 70 1014.2
20260504220057 77 185 7.0 12.2 0.00 0.00 0.00 67 1014.3
20260504214614 77 182 6.1 13.9 0.00 0.00 0.00 67 1014.6
20260504213106 78 185 6.1 11.3 0.00 0.00 0.00 66 1014.7
20260504211555 78 109 7.0 13.0 0.00 0.00 0.00 67 1015.0
20260504204555 77 151 7.8 12.2 0.00 0.00 0.00 67 1015.0
20260504203103 78 146 7.0 10.4 0.00 0.00 0.00 66 1015.3
20260504201616 77 142 7.0 12.2 0.00 0.00 0.00 67 1015.4
20260504200057 77 154 7.0 12.2 0.00 0.00 0.00 66 1015.6
20260504194555 78 149 6.1 13.0 0.00 0.00 0.00 66 1016.0
20260504193113 78 126 7.8 13.0 0.00 0.00 0.00 66 1015.8
20260504191601 78 143 6.1 12.2 0.00 0.00 0.00 65 1016.1
20260504190115 77 188 7.8 13.0 0.00 0.00 0.00 66 1016.1
20260504184626 78 145 7.0 12.2 0.00 0.00 0.00 64 1016.2
20260504183112 78 151 7.0 13.0 0.00 0.00 0.00 66 1016.4
20260504181557 77 190 6.1 13.0 0.00 0.00 0.00 66 1016.5
20260504180055 77 142 8.7 13.9 0.00 0.00 0.00 66 1016.6
20260504174555 77 158 7.0 13.9 0.00 0.00 0.00 64 1016.8
20260504173056 77 192 7.0 12.2 0.00 0.00 0.00 65 1017.1
20260504171602 77 204 7.8 13.0 0.00 0.00 0.00 66 1017.1
20260504160105 76 169 8.7 13.0 0.00 0.00 0.00 65 1017.8
20260504140107 74 137 8.7 12.2 0.00 0.00 0.00 68 1017.6